Weather Roundup
Issued by NWS Chicago, IL

Home | Current Version | Previous Version | Graphics & Text | Print | Product List | Glossary On
Versions: 1 2 3 4 5 6 7 8 9 10 11 12 13 14 15 16 17 18 19 20 21 22 23 24 25 26 27 28 29 30 31 32 33 34 35 36 37 38 39 40 41 42 43 44 45 46 47 48 49 50
465
NZUS59 KLOT 212304
HRRLOT

CHICAGO AREA WEATHER ROUNDUP
NATIONAL WEATHER SERVICE CHICAGO/ROMEOVILLE IL
600 PM CDT MON AUG 21 2017

NOTE: "FAIR" INDICATES FEW OR NO CLOUDS BELOW 12,000 FEET WITH NO
SIGNIFICANT WEATHER AND/OR OBSTRUCTIONS TO VISIBILITY.

* THESE STATIONS ARE NOT UNDER NWS QUALITY CONTROL. THEY ALSO MAY NOT
  REPORT WEATHER SUCH AS PRECIPITATION OR FOG.

ILZ005-006-012>014-019>023-220000-
NORTHEAST ILLINOIS

CITY           SKY/WX    TMP DP  RH WIND       PRES   REMARKS
OHARE          CLOUDY    84  65  52 SW16      30.00R HX  86
MIDWAY         CLOUDY    85  66  53 SW15G22   30.00R HX  87
AURORA         CLOUDY    79  70  74 SW13      30.03R HX  82
LANSING*       CLOUDY    82  70  65 S7        30.01R HX  86
JOLIET*        CLOUDY    82  73  74 SW6       30.02R HX  87
WAUKEGAN       MOSUNNY   78  72  81 S10       29.98R HAZE    HX  80
DUPAGE AIRPORT CLOUDY    80  69  69 SW14      30.01R HX  83
WHEELING       CLOUDY    84  65  52 SW13G18   30.01R HX  86
MORRIS*        CLOUDY    80  71  74 SW9       30.02R HX  84
NORTHERLY ISL    N/A     78  71  79 SE6         N/A  HX  80
$$

WIZ051-052-058>065-066-070>072-220000-
SOUTHEAST WISCONSIN

CITY           SKY/WX    TMP DP  RH WIND       PRES   REMARKS
MILWAUKEE      PTSUNNY   84  71  65 SW13      29.96S HX  89
KENOSHA*       MOSUNNY   81  72  74 S8        29.98R HX  85
RACINE*        MOSUNNY   79  72  79 S12       29.99R HX  82
WAUKESHA       SUNNY     79  68  69 S12       29.98R HX  81
$$

INZ001>003-010>013-019-020-220000-
NORTHWEST INDIANA

CITY           SKY/WX    TMP DP  RH WIND       PRES   REMARKS
GARY*          PTSUNNY   84  70  61 S9        30.01R HX  88
MICHIGAN CITY* NOT AVBL
RENSSELAER*    NOT AVBL
VALPARAISO     CLOUDY    83  73  72 S10       30.02R HX  89
$$

LMZ740>746-220000-
SOUTHERN LAKE MICHIGAN

STATION/POSITION TIME  SKY/WX   TEMP WIND        PRES    VSBY
                                AIR  DIR/SP/G
                 (UTC)          (F)  (DEG/KT/KT) (MB)    (MI)
HARRISON CRIB    2240            77  220/  7/  8   N/A
BURNHAM HARBOR   NOT AVBL
CALUMET HARBOR   2230            85  180/ 11/ 15 1014.8R
BURNS HARBOR     2240            84  180/ 10/ 17 1016.3R
MICHIGAN CITY    2240            82  170/ 10/ 14   N/A
$$

ABBREVIATIONS USED IN REMARKS
   TC - TEMPERATURE IN CELSIUS
  WCI - WIND CHILL INDEX
   HX - HEAT INDEX
  VSB - VISIBILITY
$$




USA.gov is the U.S. government's official web portal to all federal, state and local government web resources and services.